Weather History for Denver, CO

Change the Weather History Date:

Sunday, November 18, 2012

  Actual Average (KDEN) Record (KDEN)
Temperature  
Mean Temperature 50 °F 37 °F  
Max Temperature 64 °F 51 °F 78 °F (2008)
Min Temperature 35 °F 23 °F -12 °F (1880)
Degree Days  
Heating Degree Days 16 28  
Month to date heating degree days 433  
Since 1 July heating degree days 1014  
Cooling Degree Days 0 0  
Month to date cooling degree days 0  
Year to date cooling degree days 769  
Moisture  
Dew Point 27 °F    
Average Humidity 43    
Maximum Humidity 75    
Minimum Humidity 22    
Precipitation  
Precipitation 0.00 in 0.02 in 0.62 in (1991)
Month to date precipitation 0.41  
Year to date precipitation 13.75  
Snow  
Snow 0.00 in - - ()
Month to date snowfall  
Since 1 July snowfall  
Since 1 September snowfall  
Snow Depth -    
Sea Level Pressure  
Sea Level Pressure 30.03 in    
Wind  
Wind Speed 7 mph (WSW)    
Max Wind Speed 17 mph    
Max Gust Speed 23 mph    
Visibility 11 miles    
Events      
T = Trace of Precipitation, MM = Missing Value Source: NWS Daily Summary

Daily Weather History Graph

Daily Weather History Graph

Search for Another Location

Airport:

Trip Planner

Search our weather history database for the weather conditions in past years. The results will help you decide how hot, cold, wet, or windy it might be!

Date:

Astronomy

Nov. 18, 2012 Rise Set
Actual Time 6:46 AM MST 4:39 PM MST
Civil Twilight 6:17 AM MST 5:08 PM MST
Nautical Twilight 5:44 AM MST 5:41 PM MST
Astronomical Twilight 5:12 AM MST 6:13 PM MST
Moon 11:15 AM MST (11/18) 10:02 PM MST (11/18)
Length of Visible Light 10h 51m
Length of Day
9h 52m
Waxing Crescent, 31% of the Moon is Illuminated
Nov 18
Waxing Crescent
Nov 20
First Quarter
Nov 28
Full
Dec 6
Last Quarter
Dec 13
New

Hourly Weather History & Observations

Time (MST) Temp. Windchill Dew Point Humidity Pressure Visibility Wind Dir Wind Speed Gust Speed Precip Events Conditions
6:50 AM 42.8 °F 39.3 °F 24.8 °F 49% 30.00 in 50.0 mi SSW 5.8 mph - N/A   Partly Cloudy
7:00 AM 41.0 °F - 26.6 °F 57% 30.00 in 10.0 mi Calm Calm - N/A   Clear
7:20 AM 35.6 °F 29.9 °F 26.6 °F 70% 30.00 in 10.0 mi South 6.9 mph - N/A   Clear
7:40 AM 44.6 °F 39.2 °F 26.6 °F 49% 30.01 in 10.0 mi SW 10.4 mph - N/A   Clear
7:50 AM 46.4 °F 41.9 °F 26.6 °F 46% 30.02 in 50.0 mi SSW 9.2 mph - N/A   Partly Cloudy
8:00 AM 44.6 °F 39.7 °F 28.4 °F 53% 30.02 in 10.0 mi SSW 9.2 mph - N/A   Clear
8:20 AM 46.4 °F 41.5 °F 28.4 °F 50% 30.01 in 10.0 mi SW 10.4 mph - N/A   Clear
8:40 AM 50.0 °F - 28.4 °F 43% 30.02 in 10.0 mi SW 6.9 mph - N/A   Clear
8:47 AM 50.0 °F - 28.4 °F 43% 30.02 in 50.0 mi SW 11.5 mph - N/A   Partly Cloudy
9:00 AM 51.8 °F - 28.4 °F 41% 30.01 in 10.0 mi SW 9.2 mph - N/A   Clear
9:19 AM 53.6 °F - 28.4 °F 38% 30.02 in 10.0 mi SW 9.2 mph - N/A   Clear
9:40 AM 55.4 °F - 28.4 °F 36% 30.02 in 10.0 mi SW 6.9 mph - N/A   Clear
9:51 AM 57.2 °F - 26.6 °F 31% 30.03 in 50.0 mi SW 4.6 mph - N/A   Partly Cloudy
9:59 AM 55.4 °F - 28.4 °F 36% 30.03 in 10.0 mi WSW 4.6 mph - N/A   Clear
10:18 AM 57.2 °F - 28.4 °F 33% 30.02 in 10.0 mi Calm Calm - N/A   Clear
10:40 AM 59.0 °F - 26.6 °F 29% 30.03 in 10.0 mi Calm Calm - N/A   Clear
10:47 AM 59.0 °F - 26.6 °F 29% 30.02 in 50.0 mi Calm Calm - N/A   Partly Cloudy
11:00 AM 60.8 °F - 28.4 °F 29% 30.02 in 10.0 mi WNW 3.5 mph - N/A   Clear
11:18 AM 60.8 °F - 26.6 °F 27% 30.01 in 10.0 mi NW 5.8 mph - N/A   Clear
11:40 AM 60.8 °F - 26.6 °F 27% 30.00 in 10.0 mi WNW 9.2 mph - N/A   Clear
11:47 AM 62.6 °F - 26.6 °F 26% 30.00 in 50.0 mi West 5.8 mph - N/A   Partly Cloudy
12:00 PM 60.8 °F - 26.6 °F 27% 30.00 in 10.0 mi West 11.5 mph - N/A   Clear
12:20 PM 62.6 °F - 28.4 °F 27% 29.99 in 10.0 mi West 9.2 mph - N/A   Clear
12:40 PM 62.6 °F - 26.6 °F 26% 29.99 in 10.0 mi West 10.4 mph 16.1 mph N/A   Clear
12:49 PM 64.4 °F - 26.6 °F 24% 29.99 in 50.0 mi West 9.2 mph - N/A   Partly Cloudy
12:59 PM 62.6 °F - 28.4 °F 27% 29.99 in 10.0 mi WNW 9.2 mph - N/A   Clear
1:19 PM 62.6 °F - 26.6 °F 26% 29.99 in 10.0 mi West 5.8 mph - N/A   Clear
1:39 PM 62.6 °F - 26.6 °F 26% 29.98 in 10.0 mi WSW 9.2 mph - N/A   Clear
1:50 PM 62.6 °F - 24.8 °F 24% 29.98 in 50.0 mi SSW 3.5 mph - N/A   Partly Cloudy
1:59 PM 62.6 °F - 24.8 °F 24% 29.98 in 10.0 mi West 4.6 mph - N/A   Clear
2:20 PM 62.6 °F - 23.0 °F 22% 29.99 in 10.0 mi Calm Calm - N/A   Clear
2:40 PM 62.6 °F - 24.8 °F 24% 29.99 in 10.0 mi West 6.9 mph - N/A   Clear
2:59 PM 62.6 °F - 24.8 °F 24% 29.99 in 10.0 mi West 6.9 mph - N/A   Clear
3:20 PM 60.8 °F - 26.6 °F 27% 29.99 in 10.0 mi NW 16.1 mph 23.0 mph N/A   Clear
3:40 PM 60.8 °F - 26.6 °F 27% 30.00 in 10.0 mi NW 17.3 mph 21.9 mph N/A   Clear
3:47 PM 59.0 °F - 26.6 °F 29% 30.01 in 50.0 mi NW 11.5 mph - N/A   Partly Cloudy
4:00 PM 59.0 °F - 26.6 °F 29% 30.01 in 10.0 mi NW 13.8 mph - N/A   Clear
4:20 PM 55.4 °F - 26.6 °F 33% 30.01 in 10.0 mi NW 11.5 mph - N/A   Clear
4:39 PM 53.6 °F - 26.6 °F 35% 30.02 in 10.0 mi NNW 5.8 mph - N/A   Clear
4:48 PM 51.8 °F - 24.8 °F 35% 30.02 in 50.0 mi NW 6.9 mph - N/A   Partly Cloudy
5:00 PM 51.8 °F - 24.8 °F 35% 30.02 in 10.0 mi NNW 6.9 mph - N/A   Clear
5:20 PM 48.2 °F - 24.8 °F 40% 30.03 in 10.0 mi NNW 9.2 mph - N/A   Clear
5:40 PM 46.4 °F 41.9 °F 26.6 °F 46% 30.03 in 10.0 mi North 9.2 mph - N/A   Clear
5:50 PM 46.4 °F 42.4 °F 24.8 °F 43% 30.04 in 40.0 mi NNW 8.1 mph - N/A   Partly Cloudy
6:00 PM 44.6 °F 39.2 °F 26.6 °F 49% 30.04 in 10.0 mi WNW 10.4 mph - N/A   Clear
6:20 PM 46.4 °F 40.7 °F 26.6 °F 46% 30.04 in 10.0 mi West 12.7 mph - N/A   Clear
6:40 PM 44.6 °F 39.2 °F 26.6 °F 49% 30.05 in 10.0 mi West 10.4 mph - N/A   Clear
6:48 PM 44.6 °F 39.7 °F 26.6 °F 49% 30.06 in 20.0 mi West 9.2 mph - N/A   Partly Cloudy
7:00 PM 42.8 °F 38.6 °F 26.6 °F 53% 30.06 in 10.0 mi West 6.9 mph - N/A   Clear
7:20 PM 44.6 °F 39.2 °F 28.4 °F 53% 30.06 in 10.0 mi West 10.4 mph - N/A   Clear
7:40 PM 46.4 °F 42.4 °F 28.4 °F 50% 30.06 in 10.0 mi WSW 8.1 mph - N/A   Clear
7:52 PM 46.4 °F 42.9 °F 26.6 °F 46% 30.06 in 20.0 mi West 6.9 mph - N/A   Partly Cloudy
8:00 PM 46.4 °F 42.9 °F 26.6 °F 46% 30.07 in 10.0 mi WSW 6.9 mph - N/A   Clear
8:20 PM 46.4 °F 44.3 °F 26.6 °F 46% 30.07 in 10.0 mi WSW 4.6 mph - N/A   Clear
8:40 PM 37.4 °F 32.8 °F 28.4 °F 70% 30.07 in 10.0 mi South 5.8 mph - N/A   Clear
8:48 PM 37.4 °F 32.8 °F 26.6 °F 65% 30.07 in 20.0 mi South 5.8 mph - N/A   Partly Cloudy
9:00 PM 35.6 °F 29.9 °F 28.4 °F 75% 30.07 in 10.0 mi South 6.9 mph - N/A   Clear
9:20 PM 37.4 °F 32.8 °F 28.4 °F 70% 30.09 in 10.0 mi South 5.8 mph - N/A   Clear
9:40 PM 35.6 °F 30.7 °F 28.4 °F 75% 30.09 in 10.0 mi South 5.8 mph - N/A   Clear
10:20 PM 35.6 °F 29.9 °F 28.4 °F 75% 30.09 in 10.0 mi South 6.9 mph - N/A   Clear
10:39 PM 35.6 °F 29.2 °F 28.4 °F 75% 30.09 in 10.0 mi South 8.1 mph - N/A   Clear
11:00 PM 35.6 °F 27.5 °F 28.4 °F 75% 30.10 in 10.0 mi SSW 11.5 mph - N/A   Clear
11:19 PM 37.4 °F 32.1 °F 28.4 °F 70% 30.10 in 10.0 mi SSW 6.9 mph - N/A   Clear
11:40 PM 44.6 °F 40.2 °F 26.6 °F 49% 30.10 in 10.0 mi SSW 8.1 mph - N/A   Clear
11:57 PM 35.6 °F 29.9 °F 26.6 °F 70% 30.10 in 10.0 mi SW 6.9 mph - N/A   Clear